• MPC Preparation (Info)

  • MPEC 2017-N35 : 2017 MN8

    The following Minor Planet Electronic Circular may be linked-to from your own Web pages, but must not otherwise be redistributed electronically.

    A form allowing access to any MPEC is at the bottom of this page.


    Read MPEC 2017-N34 Read MPEC 2017-N36


    M.P.E.C. 2017-N35                                Issued 2017 July 2, 21:26 UT
    
         The Minor Planet Electronic Circulars contain information on unusual
             minor planets and routine data on comets.  They are published
        on behalf of Division F of the International Astronomical Union by the
              Minor Planet Center, Smithsonian Astrophysical Observatory,
                              Cambridge, MA 02138, U.S.A.
    
                 Prepared using the Tamkin Foundation Computer Network
    
                                  MPC@CFA.HARVARD.EDU
                URL https://www.minorplanetcenter.net/    ISSN 1523-6714
    
                                       2017 MN8
    
    Observations:
         K17M08N* C2017 06 25.31100 14 58 40.625-37 27 32.47         20.3 wLEN035F51
         K17M08N  C2017 06 25.31993 14 58 41.176-37 27 22.68         20.3 wLEN035F51
         K17M08N  C2017 06 25.32888 14 58 41.732-37 27 12.58         20.4 wLEN035F51
         K17M08N  C2017 06 28.25765915 02 02.689-36 36 47.81         20.6 GUEN035T14
         K17M08N  C2017 06 28.25864515 02 02.750-36 36 46.84         20.6 GUEN035T14
         K17M08N  C2017 06 28.25964115 02 02.813-36 36 45.89         20.7 GUEN035T14
         K17M08N |C2017 06 29.98900 15 04 01.35 -36 09 50.9          20.9 VuEN035807
         K17M08N |C2017 06 29.99167 15 04 01.52 -36 09 48.6          21.2 VuEN035807
         K17M08N |C2017 06 29.99423 15 04 01.67 -36 09 46.4          20.8 VuEN035807
         K17M08N |C2017 06 30.98784 15 05 09.81 -35 55 18.9          21.1 VuEN035807
         K17M08N |C2017 06 30.99133 15 05 10.00 -35 55 15.8          20.7 VuEN035807
         K17M08N |C2017 06 30.99483 15 05 10.24 -35 55 12.6          20.6 VuEN035807
    
    Observer details:
    807 Cerro Tololo.  Observers T. Linder, R. Holmes.  0.61-m f/6.5 astrograph
        + CCD.
    F51 Pan-STARRS 1, Haleakala.  Observers J. Bulger, T. Goggia, T. Lowe,
        A. Schultz, M. Willman.  Measurers K. Chambers, S. Chastel, L. Denneau,
        H. Flewelling, M. Huber, E. Lilly, E. Magnier, R. Wainscoat, C. Waters,
        R. Weryk.  1.8-m Ritchey-Chretien + CCD.
    T14 Mauna Kea-UH/Tholen NEO Follow-Up (CFHT).  Observer C. Wipper.  Measurers
        D. J. Tholen, R. J. Wainscoat.  3.6-m Canada-France-Hawaii Telescope.
    
    Orbital elements:
    2017 MN8                                                 Earth MOID = 0.0792 AU
    Epoch 2017 Sept. 4.0 TT = JDT 2458000.5                 MPC
    M  58.09577              (2000.0)            P               Q
    n   0.36544862     Peri.  136.69585     -0.68257615     -0.73076086
    a   1.9375451      Node   356.31649     +0.62728526     -0.57962232
    e   0.7495396      Incl.    7.92023     +0.37497067     -0.36059191
    P   2.70           H   19.3           G   0.15           U   6
    Residuals in seconds of arc
    170625 F51  0.0   0.0     170628 T14  0.0   0.0     170629 807  0.0   0.1-
    170625 F51  0.0   0.1-    170628 T14  0.0   0.0     170630 807  0.1+  0.2-
    170625 F51  0.0   0.1+    170629 807  0.1+  0.0     170630 807  0.2-  0.0
    170628 T14  0.0   0.0     170629 807  0.1+  0.1-    170630 807  0.0   0.3+
    
    Ephemeris:
    2017 MN8                 a,e,i = 1.94, 0.75, 8                   q = 0.4853
    Date    TT    R. A. (2000) Decl.     Delta      r     Elong.  Phase     V
    2017 06 02    14 23 24.1 -51 54 42   0.2815  1.2440   140.4    31.3    18.4
    ...
    2017 06 17    14 48 54.9 -40 35 48   0.4908  1.4273   140.0    27.2    19.7
    ...
    2017 06 25    14 58 19.3 -37 33 07   0.6150  1.5197   135.9    27.7    20.4
    ...
    2017 07 01    15 05 10.2 -35 55 08   0.7133  1.5865   132.2    28.3    20.8
    2017 07 02    15 06 18.9 -35 41 13   0.7301  1.5975   131.6    28.4    20.9
    2017 07 03    15 07 27.7 -35 27 54   0.7470  1.6083   130.9    28.5    21.0
    ...
    2017 07 09    15 14 24.6 -34 18 57   0.8506  1.6726   127.0    29.0    21.3
    ...
    2017 07 17    15 23 55.2 -33 10 07   0.9944  1.7553   121.6    29.5    21.8
    ...
    2017 08 01    15 42 44.9 -31 48 23   1.2791  1.9021   111.5    29.8    22.5
    
    A. U. Tomatic                (C) Copyright 2017 MPC           M.P.E.C. 2017-N35
    

    Read MPEC 2017-N34 Read MPEC 2017-N36


    MPEC number:

    Enter an MPEC number in one of the following forms:

    • 1997-B01 (the full form)
    • J97B01 (the packed version of the full form)
    • B01 (the abbreviated form)